Location: Arrayou
(43.1000°N, 0.0333°E)
Time: 16:22:10
(UTC+00:00)

Daily predictions for brighter satellites

Satellite Brightness Start Highest point End
(mag) Time Altitude Azimuth Time Altitude Azimuth Time Altitude Azimuth
NOAA 6 4.3 16:47:55 10° S 16:53:03 77° WSW 16:58:12 10° NNW
Cosmos 2279 Rocket 4.0 16:49:37 10° N 16:55:55 78° E 17:02:11 10° S
COSMOS 2428 2.8 16:50:32 10° SSW 16:56:12 90° WNW 17:01:57 10° NNE
COBE Rocket 4.4 16:52:05 10° NNE 16:56:24 36° E 17:00:43 10° SSE
Cosmos 304 Rocket 3.8 16:51:44 10° NNW 16:56:35 84° ENE 17:01:23 10° SSE
Cosmos 1536 4.0 16:53:25 10° NNE 16:56:38 22° ENE 16:59:49 10° SE
BREEZE-M R/B 4.1 16:50:16 10° W 16:57:00 42° NNW 17:00:29 10° NE
ATLAS 3B R/B 3.2 16:50:54 10° NW 16:57:35 68° WSW 17:04:25 10° SSE
USA 267 3.3 16:51:21 10° ESE 16:57:51 72° NE 17:04:23 10° NW
CZ-4B R/B 3.5 16:55:20 10° N 16:58:22 27° WNW 17:01:21 10° SW
NOSS 3-4 (A) 4.2 16:55:26 10° WSW 17:01:14 48° NW 17:07:24 10° NNE
NOSS 3-4 (C) 4.2 16:55:31 10° WSW 17:01:20 48° NW 17:07:31 10° NNE
Shenzhou-11 Module 1.7 16:59:04 10° W 17:01:48 86° S 17:04:33 10° E
Meteor 1-5 Rocket 4.2 16:57:25 10° N 17:02:55 60° ENE 17:08:12 10° SSE
STARLINK-46 3.6 17:01:27 10° W 17:03:56 35° NNW 17:06:27 10° NE
Lacrosse 5 rocket 1.5 17:02:47 10° SW 17:07:09 80° NW 17:11:16 10° NE
AQUARIUS 4.3 17:04:16 10° SSE 17:08:36 50° ENE 17:12:58 10° N
CZ-4 R/B 2.9 17:08:43 10° E 17:10:48 14° ENE 17:12:51 10° NNE
Aureole 1 Rocket 4.0 17:10:56 10° SE 17:12:42 15° E 17:13:53 12° ENE
CZ-4B R/B 4.2 17:08:27 10° S 17:13:35 50° W 17:18:50 10° NNW
Nadezhda 4 Rocket 4.1 17:08:29 10° SSE 17:14:38 56° E 17:20:48 10° NNE
COSMO-SKYMED 1 3.9 17:12:01 10° NE 17:15:18 21° E 17:18:34 10° SE
SL-4 R/B 2.8 17:12:17 10° W 17:15:44 36° NNW 17:19:09 12° NE
PSLV R/B 4.1 17:14:45 10° N 17:18:55 79° WNW 17:23:01 10° SSW
Cosmos 1666 3.7 17:16:33 10° NNE 17:19:40 25° ENE 17:22:46 10° SE
YAOGAN 1 4.0 17:19:16 10° ESE 17:22:03 17° ENE 17:24:50 10° NNE
Cosmos 2278 Rocket 2.1 17:21:47 10° NNW 17:27:29 75° ENE 17:33:07 10° SSE
Okean 1-7 4.1 17:26:40 10° SE 17:30:12 25° E 17:32:59 14° NE
Cosmos 2360 Rocket 4.4 17:26:38 10° W 17:30:42 20° NW 17:34:45 10° N
FALCON 9 DEB 4.0 17:27:40 10° SSW 17:30:54 36° SE 17:32:52 19° E
BREEZE-M DEB (TANK) 2.2 17:29:39 10° WNW 17:32:12 59° SSW 17:34:27 10° SE
Cosmos 1733 Rocket 3.4 17:31:40 10° NNW 17:36:02 71° W 17:40:23 10° S
Cosmos 2026 Rocket 4.4 17:31:35 10° SSE 17:37:03 36° E 17:42:31 10° NNE
Centaur D-1A AC-31 3.8 17:37:23 10° S 17:39:19 13° SSE 17:42:05 10° SE
ATLAS 2AS CENTAUR R/B 4.3 17:32:33 10° W 17:39:33 32° NW 17:46:32 10° NNE
Cosmos 2369 Rocket 4.0 17:38:18 10° NNE 17:39:54 12° NE 17:39:54 12° NE
SL-16 R/B 3.0 17:36:02 10° SSE 17:40:56 31° ESE 17:44:01 19° ENE
NOAA 12 4.0 17:39:58 10° SSE 17:45:17 80° ENE 17:50:36 10° N
Cosmos 2333 Rocket 3.6 17:42:43 10° WSW 17:47:59 36° NW 17:53:18 10° N
BREEZE-M DEB (TANK) 2.4 17:46:56 10° W 17:51:40 55° N 17:52:49 32° ENE
Cosmos 2237 Rocket 2.3 17:46:19 10° SSW 17:52:01 82° WNW 17:57:41 10° NNE
Cosmos 1812 3.8 17:48:35 10° SSW 17:52:18 45° WNW 17:56:03 10° N
STARLINK-52 3.6 17:49:33 10° SSW 17:52:54 45° SE 17:53:56 34° E
STARLINK-29 3.2 17:57:35 10° SW 18:01:03 62° SE 18:01:54 45° E
Cosmos 921 Rocket 3.4 17:58:40 10° N 18:02:42 39° ENE 18:04:17 28° ESE
Sich 1 Rocket 4.0 17:58:41 10° N 18:02:46 36° ENE 18:06:48 10° SE
SKYMED 2 3.5 18:00:06 15° NNE 18:03:41 67° E 18:07:59 10° S
Cosmos 1627 Rocket 4.4 17:58:01 10° S 18:04:01 65° E 18:10:06 10° NNE
Cosmos 2251 Rocket 4.5 17:59:47 10° SW 18:04:54 47° WNW 18:10:00 10° N
Cosmos 1782 Rocket 3.6 18:01:35 10° N 18:05:51 51° ENE 18:10:04 10° SSE
Cosmos 2219 Rocket 4.0 18:01:55 10° WSW 18:06:37 27° NW 18:11:22 10° N
USA 215 4.3 18:02:28 16° NE 18:06:57 36° NNW 18:12:47 10° W
YAOGAN 6 2.3 18:03:50 10° SSE 18:07:20 77° ENE 18:10:55 10° N
Cosmos 1174 4.3 18:06:46 10° SSW 18:11:57 55° ESE 18:13:06 42° ENE
Cosmos 2195 Rocket 4.4 18:07:25 10° S 18:13:38 84° E 18:19:57 10° N
Cosmos 614 Rocket 4.0 18:09:32 10° S 18:14:30 56° ESE 18:16:22 35° NE
Cosmos 1703 Rocket 3.5 18:11:01 10° S 18:15:28 87° W 18:19:20 14° N
ISS -2.6 18:13:41 10° WNW 18:16:53 42° SW 18:18:22 25° SSE
Envisat 3.5 18:14:14 10° S 18:19:14 60° W 18:24:17 10° NNW
ATLAS 5 CENTAUR R/B 2.8 18:18:41 10° W 18:20:19 21° NW 18:20:19 21° NW
Cosmos 1092 Rocket 4.2 18:15:01 10° SSW 18:21:18 72° W 18:27:35 10° N
Cosmos 1943 Rocket 3.5 18:18:15 10° N 18:21:11 22° NNE 18:21:11 22° NNE
STARLINK-60 3.5 18:20:43 10° WSW 18:24:02 53° NNW 18:24:03 53° NNW
Cosmos 1441 Rocket 3.2 18:23:35 10° NNW 18:27:26 76° W 18:31:10 10° S
CSL-04 Rocket 3.4 18:22:20 10° SSE 18:27:35 75° ENE 18:32:53 10° N
Okean-O 4.1 18:24:49 10° SSW 18:28:55 37° W 18:33:04 10° NNW
Cosmos 1140 Rocket 3.6 18:24:33 10° S 18:29:29 50° ESE 18:29:30 50° ESE
Cosmos 407 Rocket 3.3 18:24:40 10° SSW 18:29:49 74° ESE 18:31:32 43° NNE
Cosmos 2297 3.6 18:24:33 10° NNW 18:30:17 75° ENE 18:35:26 13° SSE
Meteor 1-18 Rocket 4.1 18:27:22 10° S 18:33:05 74° E 18:36:16 27° NNE
Shenzhou-11 Module 4.1 18:34:15 10° W 18:35:34 24° W 18:35:34 24° W
Cosmos 1023 Rocket 4.3 18:35:33 10° S 18:40:30 65° ESE 18:40:30 65° ESE
Cosmos 1867 4.0 18:36:12 10° NNW 18:40:36 43° NNE 18:40:36 43° NNE
CSL-04 Debris 4.2 18:37:12 10° SSE 18:42:40 81° WSW 18:48:08 10° NNW
OAO 3 Rocket 4.3 18:40:37 10° WSW 18:44:47 31° S 18:45:14 30° S
CZ-4 R/B 2.2 18:41:39 10° S 18:45:27 47° W 18:49:12 10° NNW
Lacrosse 5 rocket 3.3 18:43:48 10° WNW 18:46:50 19° NNW 18:47:04 19° NNW
Genesis I 4.4 18:46:07 10° NW 18:48:34 36° NW 18:48:34 36° NW
COSMO-SKYMED 1 4.0 18:48:38 16° N 18:51:35 37° WNW 18:55:33 10° SW
Okean 1 4.0 18:50:15 10° SSW 18:53:51 51° W 18:53:51 51° W
S3M 3.8 18:48:21 10° N 18:54:35 70° E 19:00:41 10° SSE
SL-4 R/B 4.0 18:52:56 10° NW 18:54:45 20° NNW 18:54:45 20° NNW
YAOGAN 1 3.4 18:53:35 10° S 18:57:45 49° W 19:01:58 10° NNW
Meteor 2-9 Rocket 4.1 18:54:48 10° N 19:08:03 - SSE 19:00:31 80° NE
Meteor 2-13 Rocket 4.2 18:57:51 10° S 19:03:54 83° E 19:04:06 81° ENE
NOAA 11 4.4 18:58:55 10° S 19:04:20 69° WSW 19:09:49 10° NNW
Cosmos 1553 Rocket 4.2 19:01:50 10° NNW 19:08:12 72° W 19:14:33 10° S
SL-16 R/B 3.3 19:19:33 10° SW 19:24:53 41° WNW 19:25:57 37° NNW
Cosmos 2369 Rocket 4.0 19:20:04 10° NNW 19:21:43 20° NNW 19:21:43 20° NNW
Cosmos 2344 4.4 19:40:54 10° NNW 19:50:07 65° NE 19:50:07 65° NE
Cosmos 1943 Rocket 4.5 20:01:32 10° NNW 20:02:45 17° NW 20:02:45 17° NW
